CZ-6A DEB, 61454

Orbit data source: Space-Track

CZ-6A DEB, 61454 is space debris in LEO originally from a launch on Tue, 06 Aug 2024 UTC launched from the Taiyaun Space Center, China (TSC). Debris objects in space refer to the collection of defunct objects orbiting the Earth. Examples of debris include non-operational satellites, rocket bodies, and fragments generated from explosions, collisions, or faulty payload assembly.

Loading next visibility...
Identifier
61454, 2024-140ZL
Orbit
LEO
Country
Flag of CNCN / PRC
Related business
Manufacturer
SAST
Mission
Spacecraft
Bus & Motor
Unknown
Mass
Unknown
Launch date (UTC)
2024-08-06 (2 years ago)
Launch vehicle
Unknown
Launch site
Taiyaun Space Center, China (TSC)
Object type
Payload
Rocket body
Debris
Shape & HBR
Unknown shape, 0.1 m
Radar Cross Section
Small (<0.1 m²)

Expand to show TLE details & history
Last TLE update: 8 hours ago

TLE from 8 hours ago
0 CZ-6A DEB
1 61454U 24140ZL  26118.78614872  .00005041  00000-0  19182-2 0  9995
2 61454  88.6064 250.0062 0023339   8.5764 351.5826 14.30656710 86859
Epoch: 2026-04-28T18:52Z
TLE epoch observation values (Epoch: 2026-04-28T18:52:03.249Z)
Latitude
-0°
Longitude
110.2362°
Altitude
776.052 km
Speed
7.475 km/s
True Right ascension
16h 40m 01s
True Declination
0° 00' 00"
Sunlit
Object was in full shadow at epoch
Visualization orbit readout
Latitude
Unknown
Longitude
Unknown
Altitude
Unknown
Speed
Unknown
Apparent Right ascension
Unknown
Apparent Declination
Unknown
Sunlit
N/A
Visualization observer readout
Local Sidereal Time
10:07:40
Azimuth
Unknown
Elevation
Unknown
Doppler factor
Unknown
Orbital elements
Apogee altitude
803.197 km
Perigee altitude
769.754 km
Semi-major axis
7,164.612 km
Eccentricity
0.00233
Inclination
88.6064°
RAAN
250.0062°
Arg. of periapsis
8.5764°
True anomaly
351.54334°
Mean anomaly
351.5826°
Eccentric anomaly
351.56298°
Mean motion
3.57894 °/min
Orbital period
100.59 mins
BSTAR
0.0019182
Loading maneuver chart data...
Computing Atmospheric mass density...
Loading historical data...
Loading historical data...
Loading historical data...
Loading historical data...
Loading historical data...
Loading historical data...
Loading historical data...

Documentation

Showing up to 5 results
|